timestamp,wind_dir_avg,wind_spd_max_dir,wind_spd_avg,wind_spd_gust,battery_voltage,lat,long
2017-12-25 00:00:00+00:00,271.0,265.0,9.64,10.54,,47.59359,-54.27349
2017-12-25 00:10:00+00:00,268.0,274.0,10.27,11.18,,47.59359,-54.27349
2017-12-25 00:20:00+00:00,269.0,270.0,9.26,10.72,,47.59359,-54.27349
2017-12-25 00:30:00+00:00,275.0,276.0,8.43,9.73,,47.59359,-54.27349
2017-12-25 00:40:00+00:00,291.0,293.0,8.92,10.49,,47.59359,-54.27349
2017-12-25 00:50:00+00:00,301.0,305.0,10.66,12.45,,47.59359,-54.27349
2017-12-25 01:00:00+00:00,292.0,302.0,10.78,12.37,,47.59359,-54.27349
2017-12-25 01:10:00+00:00,306.0,317.0,7.42,9.38,,47.59359,-54.27349
2017-12-25 01:20:00+00:00,303.0,304.0,11.14,13.38,,47.59359,-54.27349
2017-12-25 01:30:00+00:00,297.0,301.0,8.48,10.75,,47.59359,-54.27349
2017-12-25 01:40:00+00:00,293.0,286.0,9.35,10.55,,47.59359,-54.27349
2017-12-25 01:50:00+00:00,286.0,285.0,9.69,10.85,,47.59359,-54.27349
2017-12-25 02:00:00+00:00,291.0,294.0,9.58,12.38,,47.59359,-54.27349
2017-12-25 02:10:00+00:00,285.0,283.0,8.32,9.5,,47.59359,-54.27349
2017-12-25 02:20:00+00:00,290.0,284.0,9.78,11.59,,47.59359,-54.27349
2017-12-25 02:30:00+00:00,279.0,285.0,8.22,9.62,,47.59359,-54.27349
2017-12-25 02:40:00+00:00,272.0,269.0,7.98,9.85,,47.59359,-54.27349
2017-12-25 02:50:00+00:00,283.0,290.0,9.43,11.38,,47.59359,-54.27349
2017-12-25 03:00:00+00:00,287.0,285.0,8.25,9.27,,47.59359,-54.27349
2017-12-25 03:10:00+00:00,286.0,282.0,9.0,10.44,,47.59359,-54.27349
2017-12-25 03:20:00+00:00,279.0,283.0,10.97,12.31,,47.59359,-54.27349
2017-12-25 03:30:00+00:00,285.0,288.0,8.58,9.78,,47.59359,-54.27349
2017-12-25 03:40:00+00:00,283.0,279.0,9.42,11.01,,47.59359,-54.27349
2017-12-25 03:50:00+00:00,280.0,279.0,9.54,10.61,,47.59359,-54.27349
2017-12-25 04:00:00+00:00,289.0,289.0,8.24,9.51,,47.59359,-54.27349
2017-12-25 04:10:00+00:00,290.0,285.0,8.3,9.79,,47.59359,-54.27349
2017-12-25 04:20:00+00:00,298.0,293.0,8.36,9.84,,47.59359,-54.27349
2017-12-25 04:30:00+00:00,294.0,290.0,8.9,10.4,,47.59359,-54.27349
2017-12-25 04:40:00+00:00,302.0,309.0,6.37,7.52,,47.59359,-54.27349
2017-12-25 04:50:00+00:00,307.0,305.0,5.98,7.8,,47.59359,-54.27349
2017-12-25 05:00:00+00:00,308.0,306.0,4.51,5.94,,47.59359,-54.27349
2017-12-25 05:10:00+00:00,308.0,286.0,2.5,3.77,,47.59359,-54.27349
2017-12-25 05:20:00+00:00,314.0,315.0,4.52,6.06,,47.59359,-54.27349
2017-12-25 05:30:00+00:00,310.0,308.0,8.5,11.03,,47.59359,-54.27349
2017-12-25 05:40:00+00:00,324.0,323.0,9.71,12.14,,47.59359,-54.27349
2017-12-25 05:50:00+00:00,309.0,314.0,9.65,10.64,,47.59359,-54.27349
2017-12-25 06:00:00+00:00,306.0,297.0,5.74,7.77,,47.59359,-54.27349
2017-12-25 06:10:00+00:00,292.0,296.0,5.48,6.7,,47.59359,-54.27349
2017-12-25 06:20:00+00:00,310.0,309.0,5.63,6.37,,47.59359,-54.27349
2017-12-25 06:30:00+00:00,306.0,310.0,6.68,8.63,,47.59359,-54.27349
2017-12-25 06:40:00+00:00,292.0,298.0,6.76,7.6,,47.59359,-54.27349
2017-12-25 06:50:00+00:00,300.0,300.0,7.54,9.09,,47.59359,-54.27349
2017-12-25 07:00:00+00:00,300.0,293.0,6.12,7.22,,47.59359,-54.27349
2017-12-25 07:10:00+00:00,297.0,291.0,8.57,10.07,,47.59359,-54.27349
2017-12-25 07:20:00+00:00,294.0,302.0,7.13,7.98,,47.59359,-54.27349
2017-12-25 07:30:00+00:00,304.0,310.0,7.23,8.71,,47.59359,-54.27349
2017-12-25 07:40:00+00:00,311.0,311.0,5.92,7.15,,47.59359,-54.27349
2017-12-25 07:50:00+00:00,322.0,323.0,7.46,8.41,,47.59359,-54.27349
2017-12-25 08:00:00+00:00,302.0,307.0,6.72,7.4,,47.59359,-54.27349
2017-12-25 08:10:00+00:00,313.0,315.0,6.35,7.3,,47.59359,-54.27349
2017-12-25 08:20:00+00:00,300.0,305.0,6.51,7.94,,47.59359,-54.27349
2017-12-25 08:30:00+00:00,298.0,298.0,5.27,6.59,,47.59359,-54.27349
2017-12-25 08:40:00+00:00,282.0,287.0,5.33,6.67,,47.59359,-54.27349
2017-12-25 08:50:00+00:00,302.0,304.0,7.18,8.76,,47.59359,-54.27349
2017-12-25 09:00:00+00:00,289.0,298.0,7.79,9.1,,47.59359,-54.27349
2017-12-25 09:10:00+00:00,298.0,294.0,6.73,8.04,,47.59359,-54.27349
2017-12-25 09:20:00+00:00,300.0,303.0,7.45,8.76,,47.59359,-54.27349
2017-12-25 09:30:00+00:00,299.0,298.0,7.73,8.74,,47.59359,-54.27349
2017-12-25 09:40:00+00:00,303.0,298.0,7.96,9.12,,47.59359,-54.27349
2017-12-25 09:50:00+00:00,316.0,309.0,5.59,7.15,,47.59359,-54.27349
2017-12-25 10:00:00+00:00,311.0,308.0,6.61,8.46,,47.59359,-54.27349
2017-12-25 10:10:00+00:00,330.0,316.0,4.16,5.13,,47.59359,-54.27349
2017-12-25 10:20:00+00:00,345.0,345.0,4.7,5.87,,47.59359,-54.27349
2017-12-25 10:30:00+00:00,321.0,322.0,6.39,7.67,,47.59359,-54.27349
2017-12-25 10:40:00+00:00,324.0,346.0,4.44,5.86,,47.59359,-54.27349
2017-12-25 10:50:00+00:00,320.0,318.0,6.04,6.91,,47.59359,-54.27349
2017-12-25 11:00:00+00:00,321.0,317.0,2.85,4.13,,47.59359,-54.27349
2017-12-25 11:10:00+00:00,316.0,317.0,6.84,8.12,,47.59359,-54.27349
2017-12-25 11:20:00+00:00,318.0,326.0,4.07,4.75,,47.59359,-54.27349
2017-12-25 11:30:00+00:00,327.0,339.0,2.56,3.63,,47.59359,-54.27349
2017-12-25 11:40:00+00:00,318.0,313.0,5.67,6.72,,47.59359,-54.27349
2017-12-25 11:50:00+00:00,346.0,339.0,3.38,4.24,,47.59359,-54.27349
2017-12-25 12:00:00+00:00,306.0,308.0,3.9,5.08,,47.59359,-54.27349
2017-12-25 12:10:00+00:00,303.0,296.0,4.45,5.46,,47.59359,-54.27349
2017-12-25 12:20:00+00:00,336.0,338.0,4.31,5.36,,47.59359,-54.27349
2017-12-25 12:30:00+00:00,14.0,14.0,4.62,5.56,,47.59359,-54.27349
2017-12-25 12:40:00+00:00,334.0,339.0,2.97,4.03,,47.59359,-54.27349
2017-12-25 12:50:00+00:00,354.0,352.0,2.78,3.67,,47.59359,-54.27349
2017-12-25 13:00:00+00:00,332.0,328.0,2.96,3.82,,47.59359,-54.27349
2017-12-25 13:10:00+00:00,15.0,20.0,1.7,2.48,,47.59359,-54.27349
2017-12-25 13:20:00+00:00,324.0,323.0,3.69,4.66,,47.59359,-54.27349
2017-12-25 13:30:00+00:00,315.0,312.0,1.59,2.05,,47.59359,-54.27349
2017-12-25 13:40:00+00:00,300.0,302.0,2.76,3.78,,47.59359,-54.27349
2017-12-25 13:50:00+00:00,241.0,244.0,2.55,2.93,,47.59359,-54.27349
2017-12-25 14:00:00+00:00,286.0,284.0,2.92,3.51,,47.59359,-54.27349
2017-12-25 14:10:00+00:00,288.0,287.0,2.18,2.55,,47.59359,-54.27349
2017-12-25 14:20:00+00:00,269.0,266.0,2.99,4.06,,47.59359,-54.27349
2017-12-25 14:30:00+00:00,221.0,219.0,2.53,3.15,,47.59359,-54.27349
2017-12-25 14:40:00+00:00,274.0,276.0,3.17,4.08,,47.59359,-54.27349
2017-12-25 14:50:00+00:00,239.0,244.0,1.66,2.18,,47.59359,-54.27349
2017-12-25 15:00:00+00:00,258.0,249.0,1.59,2.19,,47.59359,-54.27349
2017-12-25 15:10:00+00:00,10.0,4.0,1.65,2.26,,47.59359,-54.27349
2017-12-25 15:20:00+00:00,345.0,344.0,1.74,2.4,,47.59359,-54.27349
2017-12-25 15:30:00+00:00,48.0,44.0,1.75,2.37,,47.59359,-54.27349
2017-12-25 15:40:00+00:00,45.0,39.0,2.92,3.48,,47.59359,-54.27349
2017-12-25 15:50:00+00:00,57.0,61.0,3.41,4.21,,47.59359,-54.27349
2017-12-25 16:00:00+00:00,53.0,18.0,2.06,3.87,,47.59359,-54.27349
2017-12-25 16:10:00+00:00,56.0,53.0,1.33,1.76,,47.59359,-54.27349
2017-12-25 16:20:00+00:00,65.0,77.0,2.7,3.37,,47.59359,-54.27349
2017-12-25 16:30:00+00:00,66.0,60.0,2.82,3.93,,47.59359,-54.27349
2017-12-25 16:40:00+00:00,108.0,120.0,2.56,3.66,,47.59359,-54.27349
2017-12-25 16:50:00+00:00,107.0,98.0,2.53,3.77,,47.59359,-54.27349
2017-12-25 17:00:00+00:00,133.0,141.0,2.56,3.23,,47.59359,-54.27349
2017-12-25 17:10:00+00:00,125.0,141.0,2.57,3.99,,47.59359,-54.27349
2017-12-25 17:20:00+00:00,138.0,129.0,2.86,3.88,,47.59359,-54.27349
2017-12-25 17:30:00+00:00,128.0,128.0,2.68,4.27,,47.59359,-54.27349
2017-12-25 17:40:00+00:00,148.0,143.0,3.36,4.3,,47.59359,-54.27349
2017-12-25 17:50:00+00:00,134.0,134.0,3.18,3.72,,47.59359,-54.27349
2017-12-25 18:00:00+00:00,145.0,143.0,3.49,4.17,,47.59359,-54.27349
2017-12-25 18:10:00+00:00,168.0,171.0,5.42,6.55,,47.59359,-54.27349
2017-12-25 18:20:00+00:00,129.0,138.0,4.05,5.77,,47.59359,-54.27349
2017-12-25 18:30:00+00:00,113.0,103.0,3.17,4.26,,47.59359,-54.27349
2017-12-25 18:40:00+00:00,85.0,99.0,5.59,7.55,,47.59359,-54.27349
2017-12-25 18:50:00+00:00,90.0,83.0,5.01,6.77,,47.59359,-54.27349
2017-12-25 19:00:00+00:00,90.0,89.0,3.81,5.15,,47.59359,-54.27349
2017-12-25 19:10:00+00:00,86.0,78.0,4.26,6.1,,47.59359,-54.27349
2017-12-25 19:20:00+00:00,109.0,104.0,3.18,4.61,,47.59359,-54.27349
2017-12-25 19:30:00+00:00,85.0,80.0,4.65,6.78,,47.59359,-54.27349
2017-12-25 19:40:00+00:00,88.0,91.0,4.73,6.97,,47.59359,-54.27349
2017-12-25 19:50:00+00:00,94.0,70.0,5.12,7.3,,47.59359,-54.27349
2017-12-25 20:00:00+00:00,107.0,124.0,5.02,7.95,,47.59359,-54.27349
2017-12-25 20:10:00+00:00,103.0,111.0,4.01,6.7,,47.59359,-54.27349
2017-12-25 20:20:00+00:00,118.0,125.0,5.1,8.7,,47.59359,-54.27349
2017-12-25 20:30:00+00:00,114.0,122.0,5.37,9.01,,47.59359,-54.27349
2017-12-25 20:40:00+00:00,128.0,138.0,6.02,9.2,,47.59359,-54.27349
2017-12-25 20:50:00+00:00,109.0,99.0,5.6,9.53,,47.59359,-54.27349
2017-12-25 21:00:00+00:00,110.0,83.0,5.09,7.48,,47.59359,-54.27349
2017-12-25 21:10:00+00:00,111.0,103.0,5.28,9.57,,47.59359,-54.27349
2017-12-25 21:20:00+00:00,107.0,112.0,7.22,11.37,,47.59359,-54.27349
2017-12-25 21:30:00+00:00,111.0,129.0,5.03,7.89,,47.59359,-54.27349
2017-12-25 21:40:00+00:00,105.0,120.0,3.92,6.61,,47.59359,-54.27349
2017-12-25 21:50:00+00:00,107.0,83.0,4.96,7.48,,47.59359,-54.27349
2017-12-25 22:00:00+00:00,129.0,137.0,6.73,10.06,,47.59359,-54.27349
2017-12-25 22:10:00+00:00,130.0,140.0,6.96,9.99,,47.59359,-54.27349
2017-12-25 22:20:00+00:00,120.0,127.0,7.5,11.27,,47.59359,-54.27349
2017-12-25 22:30:00+00:00,123.0,132.0,5.45,8.19,,47.59359,-54.27349
2017-12-25 22:40:00+00:00,108.0,128.0,5.32,8.37,,47.59359,-54.27349
2017-12-25 22:50:00+00:00,133.0,123.0,8.08,10.53,,47.59359,-54.27349
2017-12-25 23:00:00+00:00,132.0,136.0,6.9,9.12,,47.59359,-54.27349
2017-12-25 23:10:00+00:00,111.0,106.0,4.75,8.79,,47.59359,-54.27349
2017-12-25 23:20:00+00:00,88.0,112.0,3.84,5.64,,47.59359,-54.27349
2017-12-25 23:30:00+00:00,90.0,81.0,4.01,6.56,,47.59359,-54.27349
2017-12-25 23:40:00+00:00,95.0,83.0,2.59,3.53,,47.59359,-54.27349
2017-12-25 23:50:00+00:00,111.0,127.0,4.28,5.83,,47.59359,-54.27349
